星链-3895 (STARLINK-3895 )

导读 | 豆包AI

STARLINK-3895是美国太空探索技术公司(SpaceX)于2022年5月13日发射的星链(Starlink)项目卫星,运行于近地轨道。作为星链星座的组成部分,它旨在为全球尤其是偏远地区提供高速宽带互联网服务,助力消除数字鸿沟,提升全球网络覆盖能力,支撑星链星座规模化部署与服务落地。

Basic Information
目录编号:
52583
目录名称:
STARLINK-3895
国际标识:
2022-051AZ
轨道中心:
EARTH
卫星名称:
星链-3895
卫星全名:
星链-3895 (STARLINK-3895 )
卫星状态:
在轨 (已飞行1402 天)
发射日期:
2022-05-13 UTC
国别 :
美国 (US)
星等 :
--
Orbit Information
数据来源 国际轨道数据 AOE轨道数据
星历时间 2026-03-14T18:33:20+0800
16小时前
查看轨道信息
2026-03-08T16:00:00+0800
6天前
查看轨道信息
半长轴 6917.887km 6917.891km
偏心率 0.0001361 0.0001623
轨道倾角 53.217° 53.213°
近地点辐角 92.266° 113.614°
升交点赤经 97.798° 125.208°
平近点角 267.849° 179.132°
近地点 538.808km 538.631km
远地点 540.692km 540.877km
周期 95.438分钟 95.438分钟
每日圈数 15.088379 15.088366
Detailed Information
固有亮度:
5
最大亮度:
2.5
卫星平台:
Starlink v1.5
覆盖范围:
全球
运营商:
太空探索技术公司
运营商所在国:
美国
制造商(研发单位):
太空探索技术公司
制造商所在国:
美国
使用方式:
暂无
Satellite Introduction
星链(Starlink)计划是由太空探索技术公司(SpaceX)提出的一个巨型低轨卫星互联网星座项目,计划在2019年至2024年间在太空搭建由约1.2万颗卫星组成的“星链”网络,其中1584颗将部署在地球上空550千米处的近地轨道,并从2020年开始工作。该卫星仍在工作。
2D Orbit Map
3D Orbit Map
Orbit Altitude Analysis Chart
Orbit Inclination Analysis Chart
Orbit Comprehensive Analysis Chart
View Comprehensive Chart